GORIZONT 25 1 21922U 92017A 10066.38116926 -.00000222 +00000-0 +10000-3 0 03304 2 21922 012.0104 039.6673 0027986 305.5328 054.2320 00.99843851065574 GORIZONT 26 1 22041U 92043A 10063.07682168 +.00000030 +00000-0 +10000-3 0 09341 2 22041 011.8794 041.0912 0027366 111.5319 248.7919 00.99242682064454 GORIZONT 27 1 22245U 92082A 10066.50489278 +.00000073 +00000-0 +10000-3 0 05194 2 22245 011.7935 042.0700 0015516 237.4261 122.4546 01.00144821067580 GORIZONT 28 1 22880U 93069A 10065.80003177 -.00000289 +00000-0 +10000-3 0 03285 2 22880 011.3375 045.3653 0031544 002.3639 357.6829 00.99654300059884 GORIZONT 29 1 22907U 93072A 10060.65707289 +.00000022 +00000-0 +10000-3 0 07369 2 22907 011.3049 045.4871 0013603 214.6050 145.3757 01.00154594059601 GORIZONT 30 1 23108U 94030A 10056.73121143 -.00000111 00000-0 10000-3 0 5538 2 23108 011.1522 046.7792 0001901 238.7357 121.3359 01.00276437 57779 GORIZONT 31 1 23775U 96005A 10065.63853196 +.00000038 +00000-0 +10000-3 0 09262 2 23775 010.1554 052.3599 0018626 072.4342 287.8230 00.99894852051651 GORIZONT 32 1 23880U 96034A 10067.75431213 -.00000131 +00000-0 +10000-3 0 04123 2 23880 010.0221 053.3728 0003825 305.5037 064.7507 01.00274703050499 GORIZONT 33 1 26372U 00029A 10067.74554088 -.00000118 +00000-0 +10000-3 0 06796 2 26372 007.3072 062.3031 0003223 284.0782 076.0051 01.00255157035820